When you browse on this site, cookies collect data to enhance your experience and personalize the content and advertising you see.
Visit our Privacy Policy to learn more. By continuing to use the site, you agree to this use of cookies and data.
EN

Hourly Weather Jambol

Today, 5 July, Sunday

Time Temperature Precipitation Wind Pressure Humidity
00:00 +24°C° 0.1 mm 2 mps 747 mmHg 75%
01:00 +24°C° 0.1 mm 1 mps 747 mmHg 77%
02:00 +23°C° 0 mm 1 mps 747 mmHg 82%
03:00 +23°C° 0 mm 1 mps 747 mmHg 83%
04:00 +22°C° 0 mm 1 mps 747 mmHg 84%
05:00 +22°C° 0 mm 1 mps 747 mmHg 84%
06:00 +24°C° 0 mm 2 mps 747 mmHg 79%
07:00 +25°C° 0 mm 2 mps 747 mmHg 73%
08:00 +27°C° 0 mm 3 mps 748 mmHg 66%
09:00 +29°C° 0.3 mm 3 mps 748 mmHg 62%
10:00 +30°C° 0.3 mm 4 mps 747 mmHg 58%
11:00 +32°C° 0.3 mm 4 mps 747 mmHg 55%
12:00 +32°C° 0.4 mm 5 mps 747 mmHg 54%
13:00 +32°C° 0.4 mm 5 mps 747 mmHg 53%
14:00 +33°C° 0.4 mm 5 mps 747 mmHg 52%
15:00 +33°C° 0.1 mm 5 mps 746 mmHg 53%
16:00 +32°C° 0.1 mm 5 mps 746 mmHg 54%
17:00 +32°C° 0.1 mm 5 mps 746 mmHg 55%
18:00 +29°C° 0.1 mm 4 mps 746 mmHg 62%
19:00 +28°C° 0.1 mm 4 mps 746 mmHg 68%
20:00 +26°C° 0.1 mm 3 mps 746 mmHg 75%
21:00 +26°C° 0 mm 3 mps 746 mmHg 76%
22:00 +25°C° 0 mm 3 mps 746 mmHg 77%
23:00 +24°C° 0 mm 3 mps 746 mmHg 78%

Tomorrow, 6 July, Monday

Time Temperature Precipitation Wind Pressure Humidity
00:00 +24°C° 0 mm 3 mps 746 mmHg 79%
01:00 +24°C° 0 mm 3 mps 746 mmHg 79%
02:00 +22°C° 0 mm 3 mps 746 mmHg 80%
03:00 +22°C° 0 mm 3 mps 746 mmHg 82%
04:00 +22°C° 0 mm 3 mps 745 mmHg 84%
05:00 +23°C° 0 mm 2 mps 745 mmHg 86%
06:00 +24°C° 0 mm 3 mps 745 mmHg 80%
07:00 +26°C° 0 mm 3 mps 745 mmHg 75%
08:00 +27°C° 0 mm 4 mps 745 mmHg 69%
09:00 +29°C° 0 mm 4 mps 745 mmHg 65%
10:00 +30°C° 0 mm 5 mps 745 mmHg 61%
11:00 +32°C° 0 mm 5 mps 744 mmHg 57%
12:00 +33°C° 0 mm 5 mps 744 mmHg 54%
13:00 +34°C° 0 mm 5 mps 744 mmHg 51%
14:00 +35°C° 0 mm 5 mps 743 mmHg 48%
15:00 +34°C° 0 mm 5 mps 743 mmHg 49%
16:00 +34°C° 0 mm 5 mps 743 mmHg 51%
17:00 +33°C° 0 mm 5 mps 742 mmHg 52%
18:00 +30°C° 0 mm 4 mps 742 mmHg 60%
19:00 +28°C° 0 mm 3 mps 742 mmHg 68%
20:00 +27°C° 0 mm 2 mps 742 mmHg 76%
21:00 +26°C° 0 mm 2 mps 742 mmHg 78%
22:00 +25°C° 0 mm 1 mps 742 mmHg 81%
23:00 +24°C° 0 mm 1 mps 742 mmHg 83%

Day after tomorrow, 7 July, Tuesday

Time Temperature Precipitation Wind Pressure Humidity
00:00 +24°C° 0 mm 1 mps 742 mmHg 84%
01:00 +24°C° 0 mm 1 mps 742 mmHg 84%
02:00 +23°C° 0 mm 1 mps 742 mmHg 84%
03:00 +23°C° 0 mm 1 mps 741 mmHg 85%
04:00 +23°C° 0 mm 1 mps 741 mmHg 86%
05:00 +22°C° 0 mm 1 mps 741 mmHg 87%
06:00 +24°C° 0 mm 1 mps 741 mmHg 79%
07:00 +26°C° 0 mm 1 mps 742 mmHg 72%
08:00 +28°C° 0 mm 1 mps 742 mmHg 64%
09:00 +30°C° 0 mm 2 mps 742 mmHg 58%
10:00 +31°C° 0 mm 2 mps 742 mmHg 53%
11:00 +34°C° 0 mm 3 mps 742 mmHg 47%
12:00 +34°C° 0.1 mm 3 mps 742 mmHg 47%
13:00 +34°C° 0.1 mm 4 mps 742 mmHg 46%
14:00 +35°C° 0.1 mm 5 mps 742 mmHg 46%
15:00 +33°C° 0.1 mm 5 mps 742 mmHg 51%
16:00 +30°C° 0.1 mm 6 mps 742 mmHg 56%
17:00 +29°C° 0.1 mm 6 mps 742 mmHg 62%
18:00 +27°C° 0.4 mm 6 mps 743 mmHg 65%
19:00 +25°C° 0.4 mm 5 mps 743 mmHg 69%
20:00 +22°C° 0.4 mm 5 mps 744 mmHg 72%
21:00 +21°C° 0.5 mm 4 mps 744 mmHg 75%
22:00 +20°C° 0.5 mm 3 mps 745 mmHg 77%
23:00 +19°C° 0.5 mm 2 mps 745 mmHg 79%

8 July, Wednesday

Time Temperature Precipitation Wind Pressure Humidity
00:00 +19°C° 0.2 mm 3 mps 745 mmHg 79%
01:00 +18°C° 0.2 mm 3 mps 746 mmHg 79%
02:00 +17°C° 0.2 mm 3 mps 746 mmHg 80%
03:00 +17°C° 0.1 mm 3 mps 746 mmHg 81%
04:00 +16°C° 0.1 mm 2 mps 746 mmHg 82%
05:00 +16°C° 0.1 mm 2 mps 747 mmHg 83%
06:00 +16°C° 0 mm 2 mps 747 mmHg 79%
07:00 +17°C° 0 mm 3 mps 747 mmHg 74%
08:00 +18°C° 0 mm 3 mps 748 mmHg 70%
09:00 +18°C° 0 mm 3 mps 748 mmHg 67%
10:00 +19°C° 0 mm 3 mps 748 mmHg 65%
11:00 +19°C° 0 mm 3 mps 749 mmHg 63%
12:00 +20°C° 0.1 mm 3 mps 749 mmHg 61%
13:00 +21°C° 0.1 mm 3 mps 749 mmHg 59%
14:00 +23°C° 0.1 mm 4 mps 749 mmHg 57%
15:00 +22°C° 0 mm 4 mps 749 mmHg 58%
16:00 +22°C° 0 mm 4 mps 749 mmHg 59%
17:00 +22°C° 0 mm 5 mps 749 mmHg 60%
18:00 +21°C° 0 mm 4 mps 749 mmHg 66%
19:00 +19°C° 0 mm 3 mps 749 mmHg 72%
20:00 +18°C° 0 mm 2 mps 750 mmHg 79%
21:00 +17°C° 0 mm 2 mps 750 mmHg 82%
22:00 +17°C° 0 mm 2 mps 750 mmHg 85%
23:00 +16°C° 0 mm 1 mps 751 mmHg 88%

9 July, Thursday

Time Temperature Precipitation Wind Pressure Humidity
00:00 +16°C° 0 mm 1 mps 751 mmHg 88%
01:00 +16°C° 0 mm 1 mps 751 mmHg 89%
02:00 +16°C° 0 mm 1 mps 751 mmHg 89%
03:00 +16°C° 0 mm 1 mps 751 mmHg 89%
04:00 +16°C° 0 mm 2 mps 751 mmHg 89%
05:00 +15°C° 0 mm 2 mps 751 mmHg 90%
06:00 +17°C° 0 mm 3 mps 751 mmHg 81%
07:00 +20°C° 0 mm 4 mps 751 mmHg 72%
08:00 +22°C° 0 mm 5 mps 751 mmHg 63%
09:00 +23°C° 0 mm 5 mps 751 mmHg 59%
10:00 +25°C° 0 mm 5 mps 752 mmHg 56%
11:00 +26°C° 0 mm 5 mps 752 mmHg 52%
12:00 +27°C° 0 mm 5 mps 751 mmHg 50%
13:00 +27°C° 0 mm 5 mps 751 mmHg 49%
14:00 +28°C° 0 mm 6 mps 751 mmHg 47%
15:00 +28°C° 0 mm 5 mps 751 mmHg 48%
16:00 +27°C° 0 mm 5 mps 751 mmHg 49%
17:00 +27°C° 0 mm 5 mps 751 mmHg 50%
18:00 +26°C° 0 mm 4 mps 751 mmHg 56%
19:00 +24°C° 0 mm 3 mps 751 mmHg 63%
20:00 +21°C° 0 mm 2 mps 751 mmHg 70%
21:00 +20°C° 0 mm 2 mps 752 mmHg 71%
22:00 +20°C° 0 mm 2 mps 752 mmHg 72%
23:00 +19°C° 0 mm 2 mps 752 mmHg 74%

10 July, Friday

Time Temperature Precipitation Wind Pressure Humidity
00:00 +19°C° 0 mm 2 mps 752 mmHg 74%
01:00 +18°C° 0 mm 2 mps 752 mmHg 74%
02:00 +18°C° 0 mm 2 mps 752 mmHg 74%
03:00 +18°C° 0 mm 2 mps 752 mmHg 75%
04:00 +17°C° 0 mm 2 mps 752 mmHg 76%
05:00 +17°C° 0 mm 2 mps 752 mmHg 76%
06:00 +19°C° 0 mm 2 mps 752 mmHg 69%
07:00 +21°C° 0 mm 2 mps 752 mmHg 62%
08:00 +24°C° 0 mm 3 mps 752 mmHg 55%
09:00 +26°C° 0 mm 3 mps 752 mmHg 52%
10:00 +27°C° 0 mm 4 mps 752 mmHg 49%
11:00 +28°C° 0 mm 5 mps 752 mmHg 45%
12:00 +29°C° 0 mm 5 mps 752 mmHg 45%
13:00 +29°C° 0 mm 5 mps 752 mmHg 45%
14:00 +30°C° 0 mm 5 mps 752 mmHg 44%
15:00 +29°C° 0 mm 5 mps 752 mmHg 46%
16:00 +29°C° 0 mm 5 mps 751 mmHg 49%
17:00 +28°C° 0 mm 5 mps 751 mmHg 51%
18:00 +26°C° 0 mm 4 mps 751 mmHg 58%
19:00 +25°C° 0 mm 3 mps 751 mmHg 66%
20:00 +22°C° 0 mm 3 mps 751 mmHg 73%
21:00 +21°C° 0 mm 2 mps 752 mmHg 76%
22:00 +20°C° 0 mm 2 mps 752 mmHg 79%
23:00 +20°C° 0 mm 1 mps 752 mmHg 82%
Show more